When you browse on this site, cookies collect data to enhance your experience and personalize the content and advertising you see.
Visit our Privacy Policy to learn more. By continuing to use the site, you agree to this use of cookies and data.
  • In Hungary
  • List of Countries
  • For 7 days
  • Water Temperature
  • Satellite Maps
  • Weather Map
  • News
  • Weather Widgets
  • user-avatar
    Login

    Hourly Weather Bodzanow

    Today, 24 January, Thursday

    Time Temperature Precipitation Wind Pressure Humidity
    00:00 -9°C° 0 mm 4 mps 748 mmHg 70%
    01:00 -9°C° 0 mm 4 mps 748 mmHg 69%
    02:00 -9°C° 0 mm 4 mps 748 mmHg 69%
    03:00 -9°C° 0 mm 4 mps 748 mmHg 69%
    04:00 -9°C° 0 mm 4 mps 748 mmHg 69%
    05:00 -9°C° 0 mm 4 mps 749 mmHg 71%
    06:00 -10°C° 0 mm 4 mps 749 mmHg 72%
    07:00 -10°C° 0 mm 4 mps 749 mmHg 74%
    08:00 -10°C° 0 mm 4 mps 749 mmHg 73%
    09:00 -10°C° 0 mm 4 mps 750 mmHg 71%
    10:00 -10°C° 0 mm 5 mps 750 mmHg 70%
    11:00 -10°C° 0 mm 5 mps 750 mmHg 67%
    12:00 -10°C° 0 mm 5 mps 750 mmHg 65%
    13:00 -8°C° 0 mm 5 mps 750 mmHg 62%
    14:00 -8°C° 0 mm 5 mps 750 mmHg 63%
    15:00 -8°C° 0 mm 5 mps 750 mmHg 64%
    16:00 -8°C° 0 mm 5 mps 750 mmHg 65%
    17:00 -10°C° 0 mm 5 mps 750 mmHg 67%
    18:00 -10°C° 0 mm 5 mps 751 mmHg 70%
    19:00 -10°C° 0 mm 5 mps 751 mmHg 72%
    20:00 -10°C° 0 mm 5 mps 751 mmHg 72%
    21:00 -10°C° 0 mm 5 mps 751 mmHg 72%
    22:00 -10°C° 0 mm 5 mps 751 mmHg 72%
    23:00 -10°C° 0 mm 5 mps 751 mmHg 72%

    Tomorrow, 25 January, Friday

    Time Temperature Precipitation Wind Pressure Humidity
    00:00 -10°C° 0 mm 5 mps 751 mmHg 72%
    01:00 -10°C° 0 mm 5 mps 751 mmHg 73%
    02:00 -10°C° 0 mm 5 mps 750 mmHg 74%
    03:00 -11°C° 0 mm 5 mps 750 mmHg 75%
    04:00 -10°C° 0 mm 4 mps 750 mmHg 76%
    05:00 -10°C° 0.2 mm 4 mps 750 mmHg 78%
    06:00 -10°C° 0.2 mm 4 mps 750 mmHg 80%
    07:00 -10°C° 0.2 mm 4 mps 750 mmHg 83%
    08:00 -10°C° 0.2 mm 4 mps 750 mmHg 83%
    09:00 -9°C° 0.2 mm 4 mps 750 mmHg 84%
    10:00 -9°C° 0.2 mm 4 mps 751 mmHg 85%
    11:00 -8°C° 0.2 mm 3 mps 750 mmHg 84%
    12:00 -8°C° 0.2 mm 3 mps 750 mmHg 82%
    13:00 -7°C° 0.2 mm 2 mps 750 mmHg 81%
    14:00 -7°C° 0.1 mm 2 mps 750 mmHg 82%
    15:00 -6°C° 0.1 mm 1 mps 750 mmHg 83%
    16:00 -6°C° 0.1 mm 1 mps 750 mmHg 83%
    17:00 -6°C° 0.2 mm 1 mps 750 mmHg 85%
    18:00 -6°C° 0.2 mm 1 mps 751 mmHg 87%
    19:00 -6°C° 0.2 mm 1 mps 751 mmHg 89%
    20:00 -6°C° 0.1 mm 1 mps 751 mmHg 88%
    21:00 -7°C° 0.1 mm 2 mps 751 mmHg 88%
    22:00 -7°C° 0.1 mm 2 mps 751 mmHg 88%
    23:00 -7°C° 0 mm 2 mps 751 mmHg 87%

    Day after tomorrow, 26 January, Saturday

    Time Temperature Precipitation Wind Pressure Humidity
    00:00 -8°C° 0 mm 3 mps 751 mmHg 86%
    01:00 -8°C° 0 mm 3 mps 750 mmHg 85%
    02:00 -8°C° 0 mm 3 mps 750 mmHg 86%
    03:00 -8°C° 0 mm 3 mps 750 mmHg 86%
    04:00 -7°C° 0 mm 2 mps 750 mmHg 87%
    05:00 -9°C° 0 mm 3 mps 749 mmHg 87%
    06:00 -9°C° 0 mm 3 mps 749 mmHg 87%
    07:00 -9°C° 0 mm 3 mps 749 mmHg 87%
    08:00 -9°C° 0 mm 4 mps 748 mmHg 84%
    09:00 -8°C° 0 mm 4 mps 748 mmHg 81%
    10:00 -8°C° 0 mm 5 mps 747 mmHg 78%
    11:00 -8°C° 0.4 mm 5 mps 746 mmHg 82%
    12:00 -9°C° 0.4 mm 6 mps 745 mmHg 86%
    13:00 -8°C° 0.4 mm 6 mps 744 mmHg 91%
    14:00 -8°C° 0.7 mm 6 mps 743 mmHg 92%
    15:00 -6°C° 0.7 mm 6 mps 743 mmHg 93%
    16:00 -5°C° 0.7 mm 6 mps 742 mmHg 94%
    17:00 -4°C° 0.3 mm 6 mps 742 mmHg 94%
    18:00 -2°C° 0.3 mm 6 mps 742 mmHg 94%
    19:00 -1°C° 0.3 mm 7 mps 741 mmHg 94%
    20:00 -1°C° 0.1 mm 6 mps 742 mmHg 95%
    21:00 0°C° 0.1 mm 5 mps 742 mmHg 95%
    22:00 0°C° 0.1 mm 5 mps 742 mmHg 96%
    23:00 -1°C° 0 mm 4 mps 743 mmHg 96%

    27 January, Sunday

    Time Temperature Precipitation Wind Pressure Humidity
    00:00 -1°C° 0 mm 3 mps 743 mmHg 96%
    01:00 -3°C° 0 mm 2 mps 743 mmHg 96%
    02:00 -3°C° 0 mm 2 mps 743 mmHg 96%
    03:00 -3°C° 0 mm 2 mps 743 mmHg 95%
    04:00 -2°C° 0 mm 1 mps 743 mmHg 95%
    05:00 -4°C° 0.1 mm 2 mps 743 mmHg 95%
    06:00 -3°C° 0.1 mm 2 mps 743 mmHg 96%
    07:00 -4°C° 0.1 mm 3 mps 743 mmHg 96%
    08:00 -2°C° 0.3 mm 3 mps 742 mmHg 97%
    09:00 -2°C° 0.3 mm 3 mps 742 mmHg 97%
    10:00 -1°C° 0.3 mm 3 mps 742 mmHg 98%
    11:00 -1°C° 0.1 mm 3 mps 741 mmHg 98%
    12:00 0°C° 0.1 mm 3 mps 741 mmHg 98%
    13:00 0°C° 0.1 mm 3 mps 740 mmHg 99%
    14:00 0°C° 0 mm 3 mps 740 mmHg 98%
    15:00 0°C° 0 mm 3 mps 739 mmHg 96%
    16:00 0°C° 0 mm 3 mps 739 mmHg 95%
    17:00 0°C° 0 mm 3 mps 739 mmHg 93%
    18:00 -1°C° 0 mm 4 mps 738 mmHg 92%
    19:00 -2°C° 0 mm 4 mps 738 mmHg 90%
    20:00 -1°C° 0 mm 4 mps 738 mmHg 87%
    21:00 -1°C° 0 mm 4 mps 738 mmHg 85%
    22:00 -1°C° 0 mm 4 mps 738 mmHg 82%
    23:00 -1°C° 0.1 mm 4 mps 738 mmHg 83%

    28 January, Monday

    Time Temperature Precipitation Wind Pressure Humidity
    00:00 -1°C° 0.1 mm 4 mps 738 mmHg 84%
    01:00 -1°C° 0.1 mm 4 mps 738 mmHg 84%
    02:00 -1°C° 0.2 mm 4 mps 737 mmHg 86%
    03:00 -2°C° 0.2 mm 4 mps 737 mmHg 89%
    04:00 -2°C° 0.2 mm 4 mps 736 mmHg 91%
    05:00 -2°C° 0 mm 4 mps 736 mmHg 90%
    06:00 -3°C° 0 mm 4 mps 736 mmHg 89%
    07:00 -3°C° 0 mm 4 mps 736 mmHg 88%
    08:00 -2°C° 0 mm 5 mps 737 mmHg 87%
    09:00 -3°C° 0 mm 6 mps 737 mmHg 85%
    10:00 -2°C° 0 mm 6 mps 737 mmHg 84%
    11:00 -1°C° 0 mm 6 mps 737 mmHg 83%
    12:00 -1°C° 0 mm 6 mps 737 mmHg 83%
    13:00 -1°C° 0 mm 6 mps 736 mmHg 82%
    14:00 -1°C° 0 mm 6 mps 737 mmHg 81%
    15:00 -1°C° 0 mm 6 mps 737 mmHg 80%
    16:00 -1°C° 0 mm 6 mps 737 mmHg 79%
    17:00 -1°C° 0 mm 6 mps 737 mmHg 79%
    18:00 -2°C° 0 mm 6 mps 738 mmHg 80%
    19:00 -2°C° 0 mm 7 mps 738 mmHg 80%
    20:00 -2°C° 0 mm 6 mps 738 mmHg 83%
    21:00 -1°C° 0 mm 5 mps 739 mmHg 87%
    22:00 -1°C° 0 mm 5 mps 739 mmHg 91%
    23:00 -2°C° 0 mm 4 mps 739 mmHg 90%

    29 January, Tuesday

    Time Temperature Precipitation Wind Pressure Humidity
    00:00 -2°C° 0 mm 4 mps 740 mmHg 90%
    01:00 -3°C° 0 mm 4 mps 740 mmHg 90%
    02:00 -3°C° 0 mm 4 mps 740 mmHg 90%
    03:00 -3°C° 0 mm 4 mps 740 mmHg 91%
    04:00 -3°C° 0 mm 4 mps 740 mmHg 91%
    05:00 -3°C° 0 mm 4 mps 741 mmHg 92%
    06:00 -4°C° 0 mm 3 mps 741 mmHg 93%
    07:00 -4°C° 0 mm 3 mps 741 mmHg 93%
    08:00 -2°C° 0 mm 3 mps 741 mmHg 92%
    09:00 -2°C° 0 mm 3 mps 742 mmHg 91%
    10:00 -1°C° 0 mm 3 mps 742 mmHg 89%
    11:00 -1°C° 0 mm 3 mps 742 mmHg 88%
    12:00 -1°C° 0 mm 3 mps 742 mmHg 87%
    13:00 0°C° 0 mm 3 mps 742 mmHg 86%
    14:00 -1°C° 0 mm 2 mps 742 mmHg 87%
    15:00 -1°C° 0 mm 2 mps 742 mmHg 88%
    16:00 -2°C° 0 mm 2 mps 742 mmHg 88%
    17:00 -2°C° 0 mm 2 mps 742 mmHg 89%
    18:00 -2°C° 0 mm 2 mps 742 mmHg 90%
    19:00 -3°C° 0 mm 2 mps 742 mmHg 90%
    20:00 -3°C° 0 mm 2 mps 742 mmHg 90%
    21:00 -3°C° 0 mm 2 mps 742 mmHg 90%
    22:00 -3°C° 0 mm 2 mps 742 mmHg 89%
    23:00 -4°C° 0 mm 3 mps 742 mmHg 89%
    Show more